TIME,�����g�[���mL�n,�t���O,�����g�[��mL�n,�t���O,�����g�[���mMJ�n,�t���O,�����g�[��mMJ�n,�t���O
2003/3/1 0:00,0,0,0,0,0,0,0,0
2003/3/1 0:15,0,0,0,0,0,0,0,0
2003/3/1 0:30,0,0,0,0,0,0,0,0
2003/3/1 0:45,0,0,0,0,0,0,0,0
2003/3/1 1:00,0,0,0,0,0,0,0,0
2003/3/1 1:15,0,0,0,0,0,0,0,0
2003/3/1 1:30,0,0,0,0,0,0,0,0
2003/3/1 1:45,0,0,0,0,0,0,0,0
2003/3/1 2:00,0,0,0,0,0,0,0,0
2003/3/1 2:15,0,0,0,0,0,0,0,0
2003/3/1 2:30,0,0,0,0,0,0,0,0
2003/3/1 2:45,0,0,0,0,0,0,0,0
2003/3/1 3:00,0,0,0,0,0,0,0,0
2003/3/1 3:15,0,0,0,0,0,0,0,0
2003/3/1 3:30,0,0,0,0,0,0,0,0
2003/3/1 3:45,0,0,0,0,0,0,0,0
2003/3/1 4:00,0,0,0,0,0,0,0,0
2003/3/1 4:15,0,0,0,0,0,0,0,0
2003/3/1 4:30,0,0,0,0,0,0,0,0
2003/3/1 4:45,0,0,0,0,0,0,0,0
2003/3/1 5:00,0,0,0,0,0,0,0,0
2003/3/1 5:15,0,0,0,0,0,0,0,0
2003/3/1 5:30,0,0,0,0,0,0,0,0
2003/3/1 5:45,0,0,0,0,0,0,0,0
2003/3/1 6:00,0,0,0,0,0,0,0,0
2003/3/1 6:15,0,0,0,0,0,0,0,0
2003/3/1 6:30,0,0,0.007775905,0,0,0,1.141502854,0
2003/3/1 6:45,0,0,0.015602383,0,0,0,2.290429751,0
2003/3/1 7:00,0.000804375,0,0.009892288,0,0.11808225,0,1.452187805,0
2003/3/1 7:15,0.011125042,0,0.007475535,0,1.633156239,0,1.097408538,0
2003/3/1 7:30,0.011125042,0,0.007657903,0,1.633156239,0,1.124180087,0
2003/3/1 7:45,0.009732938,0,0.005947633,0,1.428795225,0,0.873112451,0
2003/3/1 8:00,0.00744744,0,0.005947633,0,1.093284192,0,0.873112451,0
2003/3/1 8:15,0.006219428,0,0.005947633,0,0.913011957,0,0.873112451,0
2003/3/1 8:30,0.00669669,0,0.005961425,0,0.983074092,0,0.87513719,0
2003/3/1 8:45,0.009986047,0,0.00597062,0,1.465951773,0,0.876487016,0
2003/3/1 9:00,0.010146922,0,0.006549905,0,1.489568223,0,0.961526054,0
2003/3/1 9:15,0.004031528,0,0,0,0.591828237,0,0,0
2003/3/1 9:30,0.005151218,0,0,0,0.756198729,0,0,0
2003/3/1 9:45,0.002864648,0,0,0,0.420530253,0,0,0
2003/3/1 10:00,0,0,0,0,0,0,0,0
2003/3/1 10:15,0,0,0,0,0,0,0,0
2003/3/1 10:30,0,0,0,0,0,0,0,0
2003/3/1 10:45,0,0,0,0,0,0,0,0
2003/3/1 11:00,0,0,0,0,0,0,0,0
2003/3/1 11:15,0,0,0,0,0,0,0,0
2003/3/1 11:30,0,0,0,0,0,0,0,0
2003/3/1 11:45,0,0,0,0,0,0,0,0
2003/3/1 12:00,0,0,0,0,0,0,0,0
2003/3/1 12:15,0,0,0.008053288,0,0,0,1.182222605,0
2003/3/1 12:30,0,0,0.00688399,0,0,0,1.010569732,0
2003/3/1 12:45,0,0,0.005947633,0,0,0,0.873112451,0
2003/3/1 13:00,0,0,0,0,0,0,0,0
2003/3/1 13:15,0,0,0,0,0,0,0,0
2003/3/1 13:30,0,0,0.00728244,0,0,0,1.069062192,0
2003/3/1 13:45,0,0,0.001983055,0,0,0,0.291112474,0
2003/3/1 14:00,-2.45232E-05,0,0,0,-0.0036,0,0,0
2003/3/1 14:15,-2.45232E-05,0,-2.45232E-05,0,-0.0036,0,-0.0036,0
2003/3/1 14:30,-2.45232E-05,0,-2.45232E-05,0,-0.0036,0,-0.0036,0
2003/3/1 14:45,-2.45232E-05,0,-2.45232E-05,0,-0.0036,0,-0.0036,0
2003/3/1 15:00,-2.45232E-05,0,-2.45232E-05,0,-0.0036,0,-0.0036,0
2003/3/1 15:15,0,0,0.005949165,0,0,0,0.873337422,0
2003/3/1 15:30,0,0,0.005947633,0,0,0,0.873112451,0
2003/3/1 15:45,0,0,0.005949165,0,0,0,0.873337422,0
2003/3/1 16:00,0,0,0,0,0,0,0,0
2003/3/1 16:15,0,0,0,0,0,0,0,0
2003/3/1 16:30,0,0,0,0,0,0,0,0
2003/3/1 16:45,0.006837188,0,0,0,1.003699125,0,0,0
2003/3/1 17:00,0.004917413,0,0,0,0.721876155,0,0,0
2003/3/1 17:15,0.004531313,0,0,0,0.665196675,0,0,0
2003/3/1 17:30,0.002648003,0,0.006991265,0,0.388726767,0,1.026317702,0
2003/3/1 17:45,0,0,0.005947633,0,0,0,0.873112451,0
2003/3/1 18:00,0,0,0.005947633,0,0,0,0.873112451,0
2003/3/1 18:15,0,0,0.005949165,0,0,0,0.873337422,0
2003/3/1 18:30,0,0,0.005947633,0,0,0,0.873112451,0
2003/3/1 18:45,0,0,0.005947633,0,0,0,0.873112451,0
2003/3/1 19:00,0,0,0.005949165,0,0,0,0.873337422,0
2003/3/1 19:15,0,0,0.005947633,0,0,0,0.873112451,0
2003/3/1 19:30,0,0,0.005947633,0,0,0,0.873112451,0
2003/3/1 19:45,0.00409266,0,0.005949165,0,0.600802488,0,0.873337422,0
2003/3/1 20:00,0.003967178,0,0.005947633,0,0.582381657,0,0.873112451,0
2003/3/1 20:15,0.003966105,0,0.005947633,0,0.582224214,0,0.873112451,0
2003/3/1 20:30,0.003967178,0,0.005949165,0,0.582381657,0,0.873337422,0
2003/3/1 20:45,0.003966105,0,0.005947633,0,0.582224214,0,0.873112451,0
2003/3/1 21:00,0.003967178,0,0.005949165,0,0.582381657,0,0.873337422,0
2003/3/1 21:15,0.0053625,0,0.005947633,0,0.787215,0,0.873112451,0
2003/3/1 21:30,0,0,0.00612387,0,0,0,0.898984116,0
2003/3/1 21:45,0,0,0.007639513,0,0,0,1.121480435,0
2003/3/1 22:00,0,0,0.00810386,0,0,0,1.189646648,0
2003/3/1 22:15,0,0,0.009437135,0,0,0,1.385371418,0
2003/3/1 22:30,0,0,0.01110756,0,0,0,1.630589808,0
2003/3/1 22:45,0,0,0.009570463,0,0,0,1.404943895,0
2003/3/1 23:00,0,0,0.01077654,0,0,0,1.581996072,0
2003/3/1 23:15,0,0,0.006079427,0,0,0,0.892459957,0
2003/3/1 23:30,0,0,0,0,0,0,0,0
2003/3/1 23:45,0,0,0,0,0,0,0,0
2003/3/2 0:00,0,0,0,0,0,0,0,0
2003/3/2 0:15,0,0,0,0,0,0,0,0
2003/3/2 0:30,0,0,0,0,0,0,0,0
2003/3/2 0:45,0,0,0,0,0,0,0,0
2003/3/2 1:00,0,0,0,0,0,0,0,0
2003/3/2 1:15,0,0,0,0,0,0,0,0
2003/3/2 1:30,0,0,0,0,0,0,0,0
2003/3/2 1:45,0,0,0,0,0,0,0,0
2003/3/2 2:00,0,0,0,0,0,0,0,0
2003/3/2 2:15,0,0,0,0,0,0,0,0
2003/3/2 2:30,0,0,0,0,0,0,0,0
2003/3/2 2:45,0,0,0,0,0,0,0,0
2003/3/2 3:00,0,0,0,0,0,0,0,0
2003/3/2 3:15,0,0,0,0,0,0,0,0
2003/3/2 3:30,0,0,0,0,0,0,0,0
2003/3/2 3:45,0,0,0,0,0,0,0,0
2003/3/2 4:00,0,0,0,0,0,0,0,0
2003/3/2 4:15,0,0,0,0,0,0,0,0
2003/3/2 4:30,0,0,0,0,0,0,0,0
2003/3/2 4:45,0,0,0,0,0,0,0,0
2003/3/2 5:00,0,0,0,0,0,0,0,0
2003/3/2 5:15,0,0,0,0,0,0,0,0
2003/3/2 5:30,0,0,0,0,0,0,0,0
2003/3/2 5:45,0,0,0,0,0,0,0,0
2003/3/2 6:00,0,0,0,0,0,0,0,0
2003/3/2 6:15,0,0,0,0,0,0,0,0
2003/3/2 6:30,0,0,0,0,0,0,0,0
2003/3/2 6:45,0,0,0,0,0,0,0,0
2003/3/2 7:00,0.009391883,0,0.019749328,0,1.378728351,0,2.899201277,0
2003/3/2 7:15,0.011126115,0,0.02701491,0,1.633313682,0,3.965788789,0
2003/3/2 7:30,0.01011153,0,0.019899512,0,1.484372604,0,2.921248435,0
2003/3/2 7:45,0.007351988,0,0.013420103,0,1.079271765,0,1.970071047,0
2003/3/2 8:00,0.006049973,0,0.009156688,0,0.888135963,0,1.344201725,0
2003/3/2 8:15,0.0048048,0,0.01545373,0,0.70534464,0,2.268607564,0
2003/3/2 8:30,0.004087298,0,0.007201217,0,0.600015273,0,1.057138729,0
2003/3/2 8:45,0,0,0.011899862,0,0,0,1.746899815,0
2003/3/2 9:00,0,0,0.01031679,0,0,0,1.514504772,0
2003/3/2 9:15,0,0,0,0,0,0,0,0
2003/3/2 9:30,0,0,0,0,0,0,0,0
2003/3/2 9:45,0,0,0,0,0,0,0,0
2003/3/2 10:00,0,0,0,0,0,0,0,0
2003/3/2 10:15,0,0,0,0,0,0,0,0
2003/3/2 10:30,0,0,0,0,0,0,0,0
2003/3/2 10:45,0,0,0,0,0,0,0,0
2003/3/2 11:00,0,0,0,0,0,0,0,0
2003/3/2 11:15,0,0,0,0,0,0,0,0
2003/3/2 11:30,0,0,0,0,0,0,0,0
2003/3/2 11:45,0,0,0,0,0,0,0,0
2003/3/2 12:00,0,0,0,0,0,0,0,0
2003/3/2 12:15,0,0,0.008957463,0,0,0,1.314955495,0
2003/3/2 12:30,0,0,0.005959892,0,0,0,0.874912219,0
2003/3/2 12:45,0,0,0.00601966,0,0,0,0.883686088,0
2003/3/2 13:00,0,0,0.006983602,0,0,0,1.025192847,0
2003/3/2 13:15,0,0,0.005947633,0,0,0,0.873112451,0
2003/3/2 13:30,0,0,0.008163628,0,0,0,1.198420517,0
2003/3/2 13:45,0,0,0,0,0,0,0,0
2003/3/2 14:00,0.003362288,0,0,0,0.493583805,0,0,0
2003/3/2 14:15,0.003969322,0,0,0,0.582696543,0,0,0
2003/3/2 14:30,0.003970395,0,0,0,0.582853986,0,0,0
2003/3/2 14:45,0.003966105,0,0,0,0.582224214,0,0,0
2003/3/2 15:00,0.003966105,0,0,0,0.582224214,0,0,0
2003/3/2 15:15,0.003966105,0,0,0,0.582224214,0,0,0
2003/3/2 15:30,0.003970395,0,0,0,0.582853986,0,0,0
2003/3/2 15:45,0.003966105,0,0,0,0.582224214,0,0,0
2003/3/2 16:00,0.00396825,0,0,0,0.5825391,0,0,0
2003/3/2 16:15,0.003966105,0,0,0,0.582224214,0,0,0
2003/3/2 16:30,0.003966105,0,0,0,0.582224214,0,0,0
2003/3/2 16:45,0.00396825,0,0,0,0.5825391,0,0,0
2003/3/2 17:00,0.003971468,0,0,0,0.583011429,0,0,0
2003/3/2 17:15,0,0,0,0,0,0,0,0
2003/3/2 17:30,0,0,0,0,0,0,0,0
2003/3/2 17:45,0,0,0,0,0,0,0,0
2003/3/2 18:00,0,0,0,0,0,0,0,0
2003/3/2 18:15,0,0,0,0,0,0,0,0
2003/3/2 18:30,0,0,0,0,0,0,0,0
2003/3/2 18:45,0,0,0,0,0,0,0,0
2003/3/2 19:00,0,0,0,0,0,0,0,0
2003/3/2 19:15,0,0,0,0,0,0,0,0
2003/3/2 19:30,0,0,0.010425598,0,0,0,1.530477713,0
2003/3/2 19:45,0,0,0.00599514,0,0,0,0.880086552,0
2003/3/2 20:00,0,0,0.005959892,0,0,0,0.874912219,0
2003/3/2 20:15,0,0,0.0060074,0,0,0,0.88188632,0
2003/3/2 20:30,0,0,0.005959892,0,0,0,0.874912219,0
2003/3/2 20:45,0,0,0.00605644,0,0,0,0.889085392,0
2003/3/2 21:00,0,0,0.00598288,0,0,0,0.878286784,0
2003/3/2 21:15,0,0,0.008555947,0,0,0,1.256013093,0
2003/3/2 21:30,0,0,0.01558246,0,0,0,2.287505128,0
2003/3/2 21:45,0,0,0.009008035,0,0,0,1.322379538,0
2003/3/2 22:00,0,0,0.008338332,0,0,0,1.224067211,0
2003/3/2 22:15,0,0,0.007664033,0,0,0,1.125079971,0
2003/3/2 22:30,0,0,0.008534492,0,0,0,1.252863499,0
2003/3/2 22:45,0,0,0.008646365,0,0,0,1.269286382,0
2003/3/2 23:00,0,0,0.00911531,0,0,0,1.338127508,0
2003/3/2 23:15,0,0,0.00958732,0,0,0,1.407418576,0
2003/3/2 23:30,0,0,0.015518095,0,0,0,2.278056346,0
2003/3/2 23:45,0,0,0.001981523,0,0,0,0.290887503,0
2003/3/3 0:00,0.002158943,0,0,0,0.316932759,0,0,0
2003/3/3 0:15,0,0,0,0,0,0,0,0
2003/3/3 0:30,0,0,0,0,0,0,0,0
2003/3/3 0:45,0,0,0,0,0,0,0,0
2003/3/3 1:00,0,0,0,0,0,0,0,0
2003/3/3 1:15,0,0,0,0,0,0,0,0
2003/3/3 1:30,0,0,0,0,0,0,0,0
2003/3/3 1:45,0,0,0,0,0,0,0,0
2003/3/3 2:00,0,0,0,0,0,0,0,0
2003/3/3 2:15,0,0,0,0,0,0,0,0
2003/3/3 2:30,0,0,0,0,0,0,0,0
2003/3/3 2:45,0,0,0,0,0,0,0,0
2003/3/3 3:00,0,0,0,0,0,0,0,0
2003/3/3 3:15,0,0,0,0,0,0,0,0
2003/3/3 3:30,0,0,0,0,0,0,0,0
2003/3/3 3:45,0,0,0,0,0,0,0,0
2003/3/3 4:00,0,0,0,0,0,0,0,0
2003/3/3 4:15,0,0,0,0,0,0,0,0
2003/3/3 4:30,0,0,0,0,0,0,0,0
2003/3/3 4:45,0,0,0,0,0,0,0,0
2003/3/3 5:00,0,0,0,0,0,0,0,0
2003/3/3 5:15,0,0,0,0,0,0,0,0
2003/3/3 5:30,0,0,0,0,0,0,0,0
2003/3/3 5:45,0,0,0,0,0,0,0,0
2003/3/3 6:00,0,0,0,0,0,0,0,0
2003/3/3 6:15,0,0,0,0,0,0,0,0
2003/3/3 6:30,0,0,0.019183835,0,0,0,2.816186978,0
2003/3/3 6:45,0,0,0.013219345,0,0,0,1.940599846,0
2003/3/3 7:00,0,0,0.01108917,0,0,0,1.627890156,0
2003/3/3 7:15,0,0,0.006815027,0,0,0,1.000446037,0
2003/3/3 7:30,0.000594165,0,0.006655647,0,0.087223422,0,0.977049053,0
2003/3/3 7:45,0.007458165,0,0.006030388,0,1.094858622,0,0.885260885,0
2003/3/3 8:00,0.008282918,0,0.006205093,0,1.215932289,0,0.910907579,0
2003/3/3 8:15,0.009342547,0,0.004451912,0,1.371485973,0,0.653540755,0
2003/3/3 8:30,0.008552115,0,0.00486109,0,1.255450482,0,0.713608012,0
2003/3/3 8:45,0.005733585,0,0.00641811,0,0.841690278,0,0.942178548,0
2003/3/3 9:00,0.002965462,0,0.006643388,0,0.435329895,0,0.975249285,0
2003/3/3 9:15,0,0,0.00240909,0,0,0,0.353654412,0
2003/3/3 9:30,0,0,0,0,0,0,0,0
2003/3/3 9:45,0,0,0,0,0,0,0,0
2003/3/3 10:00,0,0,0,0,0,0,0,0
2003/3/3 10:15,0,0,0,0,0,0,0,0
2003/3/3 10:30,0,0,0,0,0,0,0,0
2003/3/3 10:45,0,0,0,0,0,0,0,0
2003/3/3 11:00,0.008552115,0,0,0,1.255450482,0,0,0
2003/3/3 11:15,0.010543748,0,0,0,1.547822133,0,0,0
2003/3/3 11:30,0.00861432,0,0,0,1.264582176,0,0,0
2003/3/3 11:45,0.008050185,0,0,0,1.181767158,0,0,0
2003/3/3 12:00,0.007006642,0,0,0,1.028575119,0,0,0
2003/3/3 12:15,0.005403255,0,0,0,0.793197834,0,0,0
2003/3/3 12:30,0.006240877,0,0.01359021,0,0.916160817,0,1.995042828,0
2003/3/3 12:45,0.005136203,0,0.004323183,0,0.753994527,0,0.634643191,0
2003/3/3 13:00,0.005181248,0,0,0,0.760607133,0,0,0
2003/3/3 13:15,0.00396825,0,0,0,0.5825391,0,0,0
2003/3/3 13:30,0.003983265,0,0,0,0.584743302,0,0,0
2003/3/3 13:45,0.003970395,0,0,0,0.582853986,0,0,0
2003/3/3 14:00,0.003971468,0,0,0,0.583011429,0,0,0
2003/3/3 14:15,0.003966105,0,0,0,0.582224214,0,0,0
2003/3/3 14:30,0.003980048,0,0,0,0.584270973,0,0,0
2003/3/3 14:45,0.003967178,0,0,0,0.582381657,0,0,0
2003/3/3 15:00,0.003966105,0,0,0,0.582224214,0,0,0
2003/3/3 15:15,0.003967178,0,0,0,0.582381657,0,0,0
2003/3/3 15:30,0.00396825,0,0,0,0.5825391,0,0,0
2003/3/3 15:45,0.003966105,0,0,0,0.582224214,0,0,0
2003/3/3 16:00,0.003967178,0,0,0,0.582381657,0,0,0
2003/3/3 16:15,0.003966105,0,0,0,0.582224214,0,0,0
2003/3/3 16:30,0.003967178,0,0,0,0.582381657,0,0,0
2003/3/3 16:45,0.003966105,0,0,0,0.582224214,0,0,0
2003/3/3 17:00,0.003967178,0,0,0,0.582381657,0,0,0
2003/3/3 17:15,0.003966105,0,0,0,0.582224214,0,0,0
2003/3/3 17:30,0,0,0,0,0,0,0,0
2003/3/3 17:45,0,0,0,0,0,0,0,0
2003/3/3 18:00,0,0,0,0,0,0,0,0
2003/3/3 18:15,0,0,0,0,0,0,0,0
2003/3/3 18:30,0,0,0,0,0,0,0,0
2003/3/3 18:45,0,0,0,0,0,0,0,0
2003/3/3 19:00,0,0,0,0,0,0,0,0
2003/3/3 19:15,0,0,0,0,0,0,0,0
2003/3/3 19:30,0,0,0,0,0,0,0,0
2003/3/3 19:45,0,0,0,0,0,0,0,0
2003/3/3 20:00,0,0,0,0,0,0,0,0
2003/3/3 20:15,0,0,0,0,0,0,0,0
2003/3/3 20:30,0,0,0,0,0,0,0,0
2003/3/3 20:45,0,0,0,0,0,0,0,0
2003/3/3 21:00,0,0,0,0,0,0,0,0
2003/3/3 21:15,0,0,0,0,0,0,0,0
2003/3/3 21:30,0,0,0,0,0,0,0,0
2003/3/3 21:45,0,0,0,0,0,0,0,0
2003/3/3 22:00,0,0,0,0,0,0,0,0
2003/3/3 22:15,0,0,0,0,0,0,0,0
2003/3/3 22:30,0,0,0,0,0,0,0,0
2003/3/3 22:45,0,0,0,0,0,0,0,0
2003/3/3 23:00,0,0,0.010499158,0,0,0,1.541276321,0
2003/3/3 23:15,0.002271555,0,0.003440463,0,0.333464274,0,0.505059895,0
2003/3/3 23:30,0.011125042,0,0,0,1.633156239,0,0,0
2003/3/3 23:45,0.011125042,0,0,0,1.633156239,0,0,0
2003/3/4 0:00,0.011125042,0,0,0,1.633156239,0,0,0
2003/3/4 0:15,0.011126115,0,0,0,1.633313682,0,0,0
2003/3/4 0:30,0.011125042,0,0,0,1.633156239,0,0,0
2003/3/4 0:45,0.007416338,0,0,0,1.088718345,0,0,0
2003/3/4 1:00,0,0,0,0,0,0,0,0
2003/3/4 1:15,0,0,0,0,0,0,0,0
2003/3/4 1:30,0,0,0,0,0,0,0,0
2003/3/4 1:45,0,0,0,0,0,0,0,0
2003/3/4 2:00,0,0,0,0,0,0,0,0
2003/3/4 2:15,0,0,0,0,0,0,0,0
2003/3/4 2:30,0,0,0,0,0,0,0,0
2003/3/4 2:45,0,0,0,0,0,0,0,0
2003/3/4 3:00,0,0,0,0,0,0,0,0
2003/3/4 3:15,0,0,0,0,0,0,0,0
2003/3/4 3:30,0,0,0,0,0,0,0,0
2003/3/4 3:45,0,0,0,0,0,0,0,0
2003/3/4 4:00,0,0,0,0,0,0,0,0
2003/3/4 4:15,0,0,0,0,0,0,0,0
2003/3/4 4:30,0,0,0,0,0,0,0,0
2003/3/4 4:45,0,0,0,0,0,0,0,0
2003/3/4 5:00,0,0,0,0,0,0,0,0
2003/3/4 5:15,0,0,0,0,0,0,0,0
2003/3/4 5:30,0,0,0,0,0,0,0,0
2003/3/4 5:45,0,0,0,0,0,0,0,0
2003/3/4 6:00,0.00692835,0,0,0,1.01708178,0,0,0
2003/3/4 6:15,0.01112826,0,0,0,1.633628568,0,0,0
2003/3/4 6:30,0.011126115,0,0.024941438,0,1.633313682,0,3.661403026,0
2003/3/4 6:45,0.011126115,0,0.031307442,0,1.633313682,0,4.595932559,0
2003/3/4 7:00,0.011126115,0,0.027935942,0,1.633313682,0,4.100996358,0
2003/3/4 7:15,0.011126115,0,0.024363685,0,1.633313682,0,3.576588958,0
2003/3/4 7:30,0.011126115,0,0.01104013,0,1.633313682,0,1.620691084,0
2003/3/4 7:45,0.011126115,0,0.017884275,0,1.633313682,0,2.62541157,0
2003/3/4 8:00,0.011125042,0,0.018325635,0,1.633156239,0,2.690203218,0
2003/3/4 8:15,0.011126115,0,0.01564376,0,1.633313682,0,2.296503968,0
2003/3/4 8:30,0.011125042,0,0.022130832,0,1.633156239,0,3.248806211,0
2003/3/4 8:45,0.009049755,0,0.023248025,0,1.328504034,0,3.41281007,0
2003/3/4 9:00,0.008804153,0,0.01748889,0,1.292449587,0,2.567369052,0
2003/3/4 9:15,0.00671385,0,0.016494298,0,0.98559318,0,2.421362873,0
2003/3/4 9:30,0.005031097,0,0,0,0.738565113,0,0,0
2003/3/4 9:45,0.008574638,0,0,0,1.258756785,0,0,0
2003/3/4 10:00,0,0,0,0,0,0,0,0
2003/3/4 10:15,0,0,0,0,0,0,0,0
2003/3/4 10:30,0,0,0,0,0,0,0,0
2003/3/4 10:45,0,0,0,0,0,0,0,0
2003/3/4 11:00,0,0,0,0,0,0,0,0
2003/3/4 11:15,0,0,0,0,0,0,0,0
2003/3/4 11:30,0,0,0,0,0,0,0,0
2003/3/4 11:45,0,0,0,0,0,0,0,0
2003/3/4 12:00,0,0,0.012117477,0,0,0,1.778845697,0
2003/3/4 12:15,0,0,0.028754298,0,0,0,4.221130874,0
2003/3/4 12:30,0,0,0.025087025,0,0,0,3.682775272,0
2003/3/4 12:45,0,0,0.021183748,0,0,0,3.109774133,0
2003/3/4 13:00,0,0,0.019570025,0,0,0,2.87287967,0
2003/3/4 13:15,0.002989058,0,0.00200451,0,0.438793641,0,0.294262068,0
2003/3/4 13:30,0.003970395,0,0,0,0.582853986,0,0,0
2003/3/4 13:45,0.004854135,0,0,0,0.712587018,0,0,0
2003/3/4 14:00,0.005407545,0,0,0,0.793827606,0,0,0
2003/3/4 14:15,0.010541603,0,0,0,1.547507247,0,0,0
2003/3/4 14:30,0.01030029,0,0,0,1.512082572,0,0,0
2003/3/4 14:45,0.01064349,0,0,0,1.562464332,0,0,0
2003/3/4 15:00,0,0,0,0,0,0,0,0
2003/3/4 15:15,0,0,0,0,0,0,0,0
2003/3/4 15:30,0,0,0,0,0,0,0,0
2003/3/4 15:45,0,0,0,0,0,0,0,0
2003/3/4 16:00,0,0,0,0,0,0,0,0
2003/3/4 16:15,0,0,0,0,0,0,0,0
2003/3/4 16:30,0,0,0,0,0,0,0,0
2003/3/4 16:45,0,0,0,0,0,0,0,0
2003/3/4 17:00,0,0,0,0,0,0,0,0
2003/3/4 17:15,0,0,0,0,0,0,0,0
2003/3/4 17:30,0,0,0,0,0,0,0,0
2003/3/4 17:45,0,0,0,0,0,0,0,0
2003/3/4 18:00,0,0,0.018612213,0,0,0,2.732272795,0
2003/3/4 18:15,0.00180609,0,0.01496946,0,0.265134012,0,2.197516728,0
2003/3/4 18:30,0.011126115,0,0.01709044,0,1.633313682,0,2.508876592,0
2003/3/4 18:45,0.011125042,0,0.017202313,0,1.633156239,0,2.525299475,0
2003/3/4 19:00,0.011125042,0,0.018137138,0,1.633156239,0,2.662531785,0
2003/3/4 19:15,0.011126115,0,0.016206188,0,1.633313682,0,2.379068325,0
2003/3/4 19:30,0.011125042,0,0.017153273,0,1.633156239,0,2.518100403,0
2003/3/4 19:45,0.011125042,0,0.01766666,0,1.633156239,0,2.593465688,0
2003/3/4 20:00,0.011125042,0,0.021211333,0,1.633156239,0,3.113823611,0
2003/3/4 20:15,0.011125042,0,0.020135518,0,1.633156239,0,2.955893969,0
2003/3/4 20:30,0.011125042,0,0.017444447,0,1.633156239,0,2.560844893,0
2003/3/4 20:45,0.011125042,0,0.016273618,0,1.633156239,0,2.388967049,0
2003/3/4 21:00,0.011126115,0,0.01945662,0,1.633313682,0,2.856231816,0
2003/3/4 21:15,0.011125042,0,0.020359262,0,1.633156239,0,2.988739735,0
2003/3/4 21:30,0.011125042,0,0.020324015,0,1.633156239,0,2.983565402,0
2003/3/4 21:45,0.011125042,0,0.02007575,0,1.633156239,0,2.9471201,0
2003/3/4 22:00,0.011125042,0,0.017842898,0,1.633156239,0,2.619337353,0
2003/3/4 22:15,0.011125042,0,0.020178428,0,1.633156239,0,2.962193157,0
2003/3/4 22:30,0.011125042,0,0.007762112,0,1.633156239,0,1.139478115,0
2003/3/4 22:45,0.011125042,0,0.007935285,0,1.633156239,0,1.164899838,0
2003/3/4 23:00,0.011126115,0,0.010663135,0,1.633313682,0,1.565348218,0
2003/3/4 23:15,0.011125042,0,0.00877203,0,1.633156239,0,1.287734004,0
2003/3/4 23:30,0.011125042,0,0.008860915,0,1.633156239,0,1.300782322,0
2003/3/4 23:45,0.011125042,0,0.013176435,0,1.633156239,0,1.934300658,0
2003/3/5 0:00,0,0,0,0,0,0,0,0
2003/3/5 0:15,0,0,0,0,0,0,0,0
2003/3/5 0:30,0,0,0,0,0,0,0,0
2003/3/5 0:45,0,0,0,0,0,0,0,0
2003/3/5 1:00,0,0,0,0,0,0,0,0
2003/3/5 1:15,0,0,0,0,0,0,0,0
2003/3/5 1:30,0,0,0,0,0,0,0,0
2003/3/5 1:45,0,0,0,0,0,0,0,0
2003/3/5 2:00,0,0,0,0,0,0,0,0
2003/3/5 2:15,0,0,0,0,0,0,0,0
2003/3/5 2:30,0,0,0,0,0,0,0,0
2003/3/5 2:45,0,0,0,0,0,0,0,0
2003/3/5 3:00,0,0,0,0,0,0,0,0
2003/3/5 3:15,0,0,0,0,0,0,0,0
2003/3/5 3:30,0,0,0,0,0,0,0,0
2003/3/5 3:45,0,0,0,0,0,0,0,0
2003/3/5 4:00,0,0,0,0,0,0,0,0
2003/3/5 4:15,0,0,0,0,0,0,0,0
2003/3/5 4:30,0,0,0,0,0,0,0,0
2003/3/5 4:45,0,0,0,0,0,0,0,0
2003/3/5 5:00,0,0,0,0,0,0,0,0
2003/3/5 5:15,0,0,0,0,0,0,0,0
2003/3/5 5:30,0,0,0,0,0,0,0,0
2003/3/5 5:45,0,0,0,0,0,0,0,0
2003/3/5 6:00,0.006763185,0,0,0,0.992835558,0,0,0
2003/3/5 6:15,0.011127188,0,0,0,1.633471125,0,0,0
2003/3/5 6:30,0.011127188,0,0,0,1.633471125,0,0,0
2003/3/5 6:45,0.011126115,0,0.024475557,0,1.633313682,0,3.593011841,0
2003/3/5 7:00,0,0,0.032505858,0,0,0,4.771859882,0
2003/3/5 7:15,0,0,0.032508923,0,0,0,4.772309825,0
2003/3/5 7:30,0.012946147,0,0.02621188,0,1.900494453,0,3.847903985,0
2003/3/5 7:45,0.018671153,0,0.023185193,0,2.740925187,0,3.403586259,0
2003/3/5 8:00,0.018371925,0,0.02654903,0,2.69699859,0,3.897397606,0
2003/3/5 8:15,0.01739166,0,0.028997965,0,2.553095688,0,4.256901263,0
2003/3/5 8:30,0.015111525,0,0.028984172,0,2.21837187,0,4.254876522,0
2003/3/5 8:45,0.01412268,0,0.026173567,0,2.073209424,0,3.842279708,0
2003/3/5 9:00,0.004651432,0,0.020769973,0,0.682830291,0,3.049031963,0
2003/3/5 9:15,0.004638562,0,0.01821223,0,0.680940975,0,2.673555364,0
2003/3/5 9:30,0.014025083,0,0.008451737,0,2.058882111,0,1.240715065,0
2003/3/5 9:45,0.01229943,0,0.020961535,0,1.805556324,0,3.077153338,0
2003/3/5 10:00,0.00876876,0,0,0,1.287253968,0,0,0
2003/3/5 10:15,0.012113888,0,0,0,1.778318685,0,0,0
2003/3/5 10:30,0.008024445,0,0,0,1.177988526,0,0,0
2003/3/5 10:45,0.006870435,0,0,0,1.008579858,0,0,0
2003/3/5 11:00,0,0,0,0,0,0,0,0
2003/3/5 11:15,0,0,0,0,0,0,0,0
2003/3/5 11:30,0,0,0,0,0,0,0,0
2003/3/5 11:45,0,0,0,0,0,0,0,0
2003/3/5 12:00,0,0,0.007946012,0,0,0,1.166474635,0
2003/3/5 12:15,0,0,0.025854808,0,0,0,3.795485742,0
2003/3/5 12:30,0,0,0.019501063,0,0,0,2.862755975,0
2003/3/5 12:45,0,0,0.016866695,0,0,0,2.476030826,0
2003/3/5 13:00,0,0,0.008174355,0,0,0,1.199995314,0
2003/3/5 13:15,0,0,0,0,0,0,0,0
2003/3/5 13:30,0,0,0,0,0,0,0,0
2003/3/5 13:45,0,0,0,0,0,0,0,0
2003/3/5 14:00,0,0,0,0,0,0,0,0
2003/3/5 14:15,0,0,0,0,0,0,0,0
2003/3/5 14:30,0,0,0,0,0,0,0,0
2003/3/5 14:45,0,0,0,0,0,0,0,0
2003/3/5 15:00,0,0,0,0,0,0,0,0
2003/3/5 15:15,0,0,0,0,0,0,0,0
2003/3/5 15:30,0.006154005,0,0,0,0.903407934,0,0,0
2003/3/5 15:45,0.007379872,0,0,0,1.083365283,0,0,0
2003/3/5 16:00,0.004928137,0,0,0,0.723450585,0,0,0
2003/3/5 16:15,0.000260618,0,0,0,0.038258649,0,0,0
2003/3/5 16:30,0.003677603,0,0,0,0.539872047,0,0,0
2003/3/5 16:45,0,0,0,0,0,0,0,0
2003/3/5 17:00,0,0,0,0,0,0,0,0
2003/3/5 17:15,0,0,0,0,0,0,0,0
2003/3/5 17:30,0,0,0,0,0,0,0,0
2003/3/5 17:45,0,0,0,0,0,0,0,0
2003/3/5 18:00,0,0,0,0,0,0,0,0
2003/3/5 18:15,0,0,0,0,0,0,0,0
2003/3/5 18:30,0,0,0,0,0,0,0,0
2003/3/5 18:45,0,0,0.020828207,0,0,0,3.057580861,0
2003/3/5 19:00,0,0,0.032076757,0,0,0,4.708868,0
2003/3/5 19:15,0,0,0.031390197,0,0,0,4.608080993,0
2003/3/5 19:30,0,0,0.030728157,0,0,0,4.510893521,0
2003/3/5 19:45,0,0,0.028285353,0,0,0,4.152289748,0
2003/3/5 20:00,0,0,0.027042495,0,0,0,3.969838267,0
2003/3/5 20:15,0.012920407,0,0.026041773,0,1.896715821,0,3.822932203,0
2003/3/5 20:30,0.00510939,0,0.009285418,0,0.750058452,0,1.363099289,0
2003/3/5 20:45,0,0,0,0,0,0,0,0
2003/3/5 21:00,0,0,0,0,0,0,0,0
2003/3/5 21:15,0,0,0,0,0,0,0,0
2003/3/5 21:30,0.012074205,0,0,0,1.772493294,0,0,0
2003/3/5 21:45,0.012212557,0,0,0,1.792803441,0,0,0
2003/3/5 22:00,0.00685542,0,0,0,1.006375656,0,0,0
2003/3/5 22:15,0,0,0,0,0,0,0,0
2003/3/5 22:30,0,0,0,0,0,0,0,0
2003/3/5 22:45,0,0,0.004727762,0,0,0,0.694035535,0
2003/3/5 23:00,0,0,0.01381702,0,0,0,2.028338536,0
2003/3/5 23:15,0,0,0.007634915,0,0,0,1.120805522,0
2003/3/5 23:30,0,0,0,0,0,0,0,0
2003/3/5 23:45,0,0,0,0,0,0,0,0
2003/3/6 0:00,0,0,0,0,0,0,0,0
2003/3/6 0:15,0,0,0,0,0,0,0,0
2003/3/6 0:30,0,0,0,0,0,0,0,0
2003/3/6 0:45,0,0,0,0,0,0,0,0
2003/3/6 1:00,0,0,0,0,0,0,0,0
2003/3/6 1:15,0,0,0,0,0,0,0,0
2003/3/6 1:30,0,0,0,0,0,0,0,0
2003/3/6 1:45,0,0,0,0,0,0,0,0
2003/3/6 2:00,0,0,0,0,0,0,0,0
2003/3/6 2:15,0,0,0,0,0,0,0,0
2003/3/6 2:30,0,0,0,0,0,0,0,0
2003/3/6 2:45,0,0,0,0,0,0,0,0
2003/3/6 3:00,0,0,0,0,0,0,0,0
2003/3/6 3:15,0,0,0,0,0,0,0,0
2003/3/6 3:30,0,0,0,0,0,0,0,0
2003/3/6 3:45,0,0,0,0,0,0,0,0
2003/3/6 4:00,0,0,0,0,0,0,0,0
2003/3/6 4:15,0,0,0,0,0,0,0,0
2003/3/6 4:30,0,0,0,0,0,0,0,0
2003/3/6 4:45,0,0,0,0,0,0,0,0
2003/3/6 5:00,0,0,0,0,0,0,0,0
2003/3/6 5:15,0,0,0,0,0,0,0,0
2003/3/6 5:30,0,0,0,0,0,0,0,0
2003/3/6 5:45,0,0,0,0,0,0,0,0
2003/3/6 6:00,0.009396173,0,0,0,1.379358123,0,0,0
2003/3/6 6:15,0.011127188,0,0,0,1.633471125,0,0,0
2003/3/6 6:30,0.011126115,0,0.02044355,0,1.633313682,0,3.00111314,0
2003/3/6 6:45,0.011126115,0,0.030812445,0,1.633313682,0,4.523266926,0
2003/3/6 7:00,0.011126115,0,0.028631697,0,1.633313682,0,4.203133193,0
2003/3/6 7:15,0.011126115,0,0.022820457,0,1.633313682,0,3.350043161,0
2003/3/6 7:30,0.011125042,0,0.015297415,0,1.633156239,0,2.245660522,0
2003/3/6 7:45,0.011125042,0,0.01616481,0,1.633156239,0,2.372994108,0
2003/3/6 8:00,0.011125042,0,0.026826413,0,1.633156239,0,3.938117357,0
2003/3/6 8:15,0.011125042,0,0.019556233,0,1.633156239,0,2.870854931,0
2003/3/6 8:30,0.011126115,0,0.021137772,0,1.633313682,0,3.103025003,0
2003/3/6 8:45,0.010061123,0,0.013188695,0,1.476972783,0,1.936100426,0
2003/3/6 9:00,0.01004718,0,0.012043918,0,1.474926024,0,1.768047089,0
2003/3/6 9:15,0.005590942,0,0,0,0.820750359,0,0,0
2003/3/6 9:30,0.005022518,0,0,0,0.737305569,0,0,0
2003/3/6 9:45,0.001551908,0,0,0,0.227820021,0,0,0
2003/3/6 10:00,0,0,0,0,0,0,0,0
2003/3/6 10:15,0,0,0,0,0,0,0,0
2003/3/6 10:30,0,0,0,0,0,0,0,0
2003/3/6 10:45,0,0,0,0,0,0,0,0
2003/3/6 11:00,0,0,0,0,0,0,0,0
2003/3/6 11:15,0,0,0,0,0,0,0,0
2003/3/6 11:30,0.007319813,0,0,0,1.074548475,0,0,0
2003/3/6 11:45,0.008057693,0,0,0,1.182869259,0,0,0
2003/3/6 12:00,0.007339118,0,0,0,1.077382449,0,0,0
2003/3/6 12:15,0.008620755,0,0,0,1.265526834,0,0,0
2003/3/6 12:30,0.005969535,0,0,0,0.876327738,0,0,0